EDT,Max TemperatureF,Mean TemperatureF,Min TemperatureF,Max Dew PointF,MeanDew PointF,Min DewpointF,Max Humidity, Mean Humidity, Min Humidity, Max Sea Level PressureIn, Mean Sea Level PressureIn, Min Sea Level PressureIn, Max VisibilityMiles, Mean VisibilityMiles, Min VisibilityMiles, Max Wind SpeedMPH, Mean Wind SpeedMPH, Max Gust SpeedMPH,PrecipitationIn, CloudCover, Events, WindDirDegrees
2012-9-1,87,78,69,73,70,66,100,81,55,30.29,30.23,30.16,10,10,7,6,1,,0.00,0,,225
2012-9-2,84,75,66,73,70,66,100,86,62,30.16,30.10,30.03,10,10,4,10,2,,0.00,1,,206
2012-9-3,78,72,66,73,69,66,100,94,74,30.06,30.04,30.00,10,10,1,8,3,,0.00,2,,166
2012-9-4,80,73,66,72,69,66,100,88,74,30.04,30.01,29.97,10,10,0,6,2,,0.00,4,,162
2012-9-5,80,74,68,73,71,68,100,96,74,30.03,29.98,29.94,10,7,0,6,1,,0.00,3,,190
2012-9-6,80,73,66,73,69,66,100,95,74,30.08,30.03,29.97,10,9,0,7,3,,0.00,2,,272
2012-9-7,87,74,60,73,64,55,100,76,35,30.08,30.02,29.92,10,8,0,6,1,,0.00,2,,226
2012-9-8,71,62,51,68,62,52,100,91,78,29.99,29.89,29.83,10,10,2,15,5,26,0.00,1,,276
2012-9-9,69,58,46,57,52,46,100,82,49,30.10,30.02,29.96,10,7,0,10,1,,0.00,3,,319
2012-9-10,71,60,50,55,51,45,100,76,38,30.24,30.18,30.09,10,10,10,9,2,,0.00,1,,9
2012-9-11,77,64,51,54,50,45,94,63,44,30.33,30.29,30.24,10,10,10,7,2,,0.00,0,,154
2012-9-12,78,66,53,63,57,54,100,76,44,30.41,30.35,30.32,10,10,10,5,1,,0.00,1,,30
2012-9-13,75,65,55,59,54,48,100,72,38,30.42,30.35,30.30,10,10,10,6,1,,0.00,0,,85
2012-9-14,75,65,55,61,56,48,94,71,50,30.34,30.29,30.26,10,10,7,5,1,,0.00,1,,322
2012-9-15,71,64,57,63,61,57,100,93,73,30.31,30.26,30.21,10,8,0,6,1,,0.00,1,,338
2012-9-16,73,64,55,64,60,55,100,91,65,30.20,30.16,30.12,10,10,4,6,1,,0.00,2,,345
2012-9-17,69,64,60,66,63,61,100,97,83,30.13,30.05,29.88,10,8,2,7,1,,0.00,2,,152
2012-9-18,64,60,55,64,61,55,100,100,100,29.99,29.81,29.71,10,7,1,14,5,,0.00,4,,284
2012-9-19,66,56,46,54,47,43,100,77,46,30.17,30.11,30.01,10,10,10,7,5,,0.00,1,,354
2012-9-20,73,62,51,57,54,48,100,76,50,30.17,30.12,30.09,10,10,10,9,2,,0.00,0,,180
2012-9-21,75,66,57,61,56,54,100,77,47,30.14,30.08,30.00,10,10,10,9,4,,0.00,1,,199
2012-9-22,73,65,55,61,54,43,94,70,50,30.11,30.02,29.97,10,10,10,14,8,21,0.00,1,,257
2012-9-23,62,50,39,45,38,30,100,66,30,30.23,30.17,30.11,10,10,10,12,4,,0.00,0,,333
2012-9-24,64,50,37,43,38,34,100,65,32,30.28,30.22,30.17,10,10,10,6,1,,0.00,0,,206
2012-9-25,64,56,48,57,47,37,100,72,45,30.29,30.20,30.13,10,10,0,9,3,,0.00,2,,176
2012-9-26,77,66,55,61,57,55,100,74,50,30.26,30.22,30.18,10,10,10,8,3,,0.00,0,,190
2012-9-27,75,65,55,64,61,55,100,86,65,30.27,30.23,30.19,10,10,9,8,2,,0.00,1,,221
2012-9-28,69,63,57,66,61,57,100,99,83,30.21,30.14,30.08,10,6,0,8,2,,0.00,4,,268
2012-9-29,66,58,50,63,57,50,100,96,73,30.09,30.03,29.96,10,7,0,7,1,,0.00,3,,342
2012-9-30,66,54,42,55,47,43,100,78,46,30.00,29.94,29.89,10,8,0,7,1,,0.00,1,,276